#timestamp,LO_Frequency,Hit,StdDev 
1634220015.3,286046998.6,N
1634220035.2,286046998.5,N
1634220055.0,286047000.8,N
1634220055.9,286047000.8,N
1634220075.8,286046998.1,N
1634220095.6,286046999.0,N
1634220115.4,286047000.7,N
1634220135.3,286047000.1,N
1634220155.1,286047002.8,N
1634220175.8,286047000.1,N
1634220195.7,286046998.4,N
1634220215.5,286046998.4,N
1634220235.4,286047001.1,N
1634220255.2,286047004.3,N
1634220275.0,286047002.4,N
1634220275.9,286047002.4,N
1634220295.8,286046999.9,N
1634220315.6,286047000.2,N
1634220335.5,286047001.0,N
1634220355.3,286046998.2,N
1634220375.1,286046998.6,N
1634220395.9,286046996.6,N
1634220415.7,286046996.8,N
1634220435.5,286046996.7,N
1634220455.4,286046997.8,N
1634220475.2,286046996.8,N
1634220495.1,286047000.3,N
1634220496.0,286047000.3,N
1634220515.8,286046998.6,N
1634220535.6,286047000.8,N
1634220555.5,286047000.5,N
1634220575.3,286047002.6,N
1634220595.1,286046999.7,N
1634220615.9,286047002.5,N
1634220635.7,286047000.9,N
1634220655.6,286047000.5,N
1634220675.4,286046998.5,N
1634220695.2,286046998.2,N
1634220715.1,286046996.6,N
1634220716.0,286046996.6,N
1634220735.8,286046996.9,N
1634220755.6,286047001.1,N
1634220775.5,286047000.8,N
1634220795.3,286047000.6,N
1634220815.2,286046999.8,N
1634220835.9,286046999.8,N
1634220855.7,286047002.5,N
1634220875.6,286047000.1,N
1634220895.4,286047002.8,N
1634220915.3,286047000.7,N
1634220935.1,286046999.4,N
1634220936.0,286046999.4,N
1634220955.8,286046996.9,N
1634220975.7,286046996.7,N
1634220995.5,286046997.2,N
1634221015.3,286046999.6,N
1634221035.2,286046998.6,N
1634221055.0,286046998.1,N
1634221055.9,286046998.1,N
1634221075.8,286047001.2,N
1634221095.6,286047000.6,N
1634221115.4,286047001.2,N
1634221135.3,286046996.9,N
1634221155.1,286046998.6,N
1634221175.9,286046999.2,N
1634221195.7,286046998.7,N
1634221215.5,286046998.4,N
1634221235.4,286046998.2,N
1634221255.2,286047000.4,N
1634221275.1,286047000.8,N
1634221276.0,286047000.8,N
1634221295.8,286047000.8,N
1634221315.6,286046996.8,N
1634221335.5,286046998.5,N
1634221355.3,286046998.2,N
1634221375.1,286046999.1,N
1634221395.9,286046996.5,N
1634221415.7,286046999.3,N
1634221435.6,286046997.6,N
1634221455.4,286046995.5,Y
1634221475.2,286047001.2,P
1634221495.1,286047000.2,N
1634221496.0,286047000.2,N
1634221515.8,286047002.4,N
1634221535.7,286047000.2,N
1634221555.5,286046999.8,N
1634221575.3,286047000.6,N
1634221595.2,286047000.2,N
1634221615.0,286047000.6,N
1634221615.9,286047000.6,N
1634221635.7,286046999.8,N
1634221655.6,286046999.9,N
1634221675.4,286047000.4,N
1634221695.3,286047002.3,N
1634221715.1,286047002.5,N
1634221716.0,286047002.5,N
1634221735.8,286047001.3,N
1634221755.7,286047001.7,N
1634221775.5,286047001.4,N
1634221795.3,286047002.3,N
1634221815.2,286047002.4,N
1634221835.0,286047005.2,Y
1634221835.9,286047005.2,P
1634221855.8,286047001.8,N
1634221875.6,286047002.5,N
1634221895.4,286046999.0,N
1634221915.3,286046998.2,N
1634221935.1,286046999.7,N
1634221955.9,286047000.5,N
1634221975.7,286046998.9,N
1634221995.5,286046998.5,N
1634222015.4,286046999.5,N
1634222035.2,286046996.7,N
1634222055.0,286046999.2,N
1634222055.9,286046999.2,N
1634222075.8,286046999.4,N
1634222095.6,286046999.4,N
1634222115.4,286046998.2,N
1634222135.3,286047001.2,N
1634222155.1,286046997.0,N
1634222175.9,286046997.1,N
1634222195.7,286046997.2,N
1634222215.5,286046999.3,N
1634222235.4,286046995.3,N
1634222255.2,286046996.1,N
1634222275.0,286046998.2,N
1634222276.0,286046998.2,N
1634222295.8,286046998.3,N
1634222315.6,286046998.3,N
1634222335.5,286046998.1,N
1634222355.3,286046997.3,N
1634222375.1,286046996.5,N
1634222395.9,286046996.9,N
1634222415.7,286046997.4,N
1634222435.6,286046996.9,N
1634222455.4,286046997.0,N
1634222475.2,286046997.3,N
1634222495.1,286046998.0,N
1634222496.0,286046998.0,N
1634222515.8,286046996.6,N
1634222535.6,286046995.3,Y
1634222555.5,286046997.5,P
1634222575.3,286046996.9,P
1634222595.2,286046996.7,P
1634222615.9,286046996.9,Y
1634222635.7,286047002.3,P
1634222655.6,286047002.5,N
1634222675.4,286047002.1,N
1634222695.3,286047004.2,N
1634222715.1,286047000.1,N
1634222716.0,286047000.1,N
1634222735.8,286046998.6,N
1634222755.7,286047000.9,N
1634222775.5,286047002.6,N
1634222795.3,286047004.2,N
1634222815.2,286047001.1,N
1634222835.0,286046998.1,N
1634222835.9,286046998.1,N
1634222855.8,286046998.2,N
1634222875.6,286047001.0,N
1634222895.4,286047000.4,N
1634222915.3,286046999.7,N
1634222935.1,286047002.5,N
1634222955.8,286047002.0,N
1634222975.7,286047003.9,N
1634222995.5,286047000.2,N
1634223015.4,286047000.5,N
1634223035.2,286046998.1,N
1634223055.0,286046999.4,N
1634223055.9,286046999.4,N
1634223075.8,286047000.4,N
1634223095.6,286047001.2,N
1634223115.4,286047001.1,N
1634223135.3,286046999.7,N
1634223155.1,286047001.0,N
1634223175.9,286047001.1,N
1634223195.7,286046998.3,N
1634223215.5,286046998.4,N
1634223235.4,286046999.2,N
1634223255.2,286047000.4,N
1634223275.0,286046998.3,N
1634223276.0,286046998.3,N
1634223295.8,286047001.2,N
1634223315.6,286047004.3,N
1634223335.5,286047001.7,N
1634223355.3,286047004.2,N
1634223375.1,286047005.4,Y
1634223395.9,286047004.0,P
1634223415.7,286047002.3,N
1634223435.6,286047000.6,N
1634223455.4,286047001.2,N
1634223475.2,286046998.8,N
1634223495.1,286046999.0,N
1634223496.0,286046999.0,N
1634223515.8,286047000.6,N
1634223535.6,286046999.8,N
1634223555.5,286046999.9,N
1634223575.3,286047001.1,N
1634223595.2,286047000.2,N
